Time,TemperatureF,DewpointF,PressureIn,WindDirection,WindDirectionDegrees,WindSpeedMPH,WindSpeedGustMPH,Humidity,HourlyPrecipIn,Conditions,Clouds,dailyrainin,SoftwareType,DateUTC
2013-07-07 00:05:00,75.2,71.7,30.05,WNW,299,0.0,0.0,89,0.00,,,0.00,Wunderground v.1.13,2013-07-07 04:05:00,
2013-07-07 00:10:00,75.2,71.7,30.05,WNW,299,0.0,0.0,89,0.00,,,0.00,Wunderground v.1.13,2013-07-07 04:10:00,
2013-07-07 00:15:00,75.1,72.0,30.06,WNW,300,0.0,0.0,90,0.00,,,0.00,Wunderground v.1.13,2013-07-07 04:15:00,
2013-07-07 00:20:00,75.0,71.9,30.06,WNW,300,0.0,0.0,90,0.00,,,0.00,Wunderground v.1.13,2013-07-07 04:20:00,
2013-07-07 00:25:00,75.0,71.9,30.06,WNW,300,0.0,0.0,90,0.00,,,0.00,Wunderground v.1.13,2013-07-07 04:25:00,
2013-07-07 00:35:00,75.6,71.8,30.06,WSW,246,2.0,2.0,88,0.00,,,0.00,Wunderground v.1.13,2013-07-07 04:35:00,
2013-07-07 00:40:00,76.1,71.6,30.06,SW,236,2.0,2.0,86,0.00,,,0.00,Wunderground v.1.13,2013-07-07 04:40:00,
2013-07-07 00:45:00,76.5,71.7,30.06,West,270,1.0,5.0,85,0.00,,,0.00,Wunderground v.1.13,2013-07-07 04:45:00,
2013-07-07 00:50:00,76.9,71.7,30.06,West,271,2.0,2.0,84,0.00,,,0.00,Wunderground v.1.13,2013-07-07 04:50:00,
2013-07-07 00:55:00,77.1,71.9,30.06,SW,214,1.0,1.0,84,0.00,,,0.00,Wunderground v.1.13,2013-07-07 04:55:00,
2013-07-07 01:00:00,77.1,71.5,30.06,West,273,1.0,2.0,83,0.00,,,0.00,Wunderground v.1.13,2013-07-07 05:00:00,
2013-07-07 01:05:00,77.0,71.8,30.06,West,273,0.0,2.0,84,0.00,,,0.00,Wunderground v.1.13,2013-07-07 05:05:00,
2013-07-07 01:15:00,76.5,71.7,30.06,West,273,0.0,2.0,85,0.00,,,0.00,Wunderground v.1.13,2013-07-07 05:15:00,
2013-07-07 01:20:00,76.2,71.7,30.06,West,273,0.0,2.0,86,0.00,,,0.00,Wunderground v.1.13,2013-07-07 05:20:00,
2013-07-07 01:25:00,76.0,71.2,30.06,West,273,0.0,2.0,85,0.00,,,0.00,Wunderground v.1.13,2013-07-07 05:25:00,
2013-07-07 01:30:00,75.8,71.3,30.06,West,273,0.0,2.0,86,0.00,,,0.00,Wunderground v.1.13,2013-07-07 05:30:00,
2013-07-07 01:40:00,75.6,71.5,30.06,West,273,0.0,2.0,87,0.00,,,0.00,Wunderground v.1.13,2013-07-07 05:40:00,
2013-07-07 01:45:00,75.4,71.3,30.06,West,273,0.0,2.0,87,0.00,,,0.00,Wunderground v.1.13,2013-07-07 05:45:00,
2013-07-07 01:55:00,74.8,71.0,30.06,West,273,0.0,2.0,88,0.00,,,0.00,Wunderground v.1.13,2013-07-07 05:55:00,
2013-07-07 02:00:00,74.6,70.8,30.06,West,273,0.0,2.0,88,0.00,,,0.00,Wunderground v.1.13,2013-07-07 06:00:00,
2013-07-07 02:05:00,74.5,70.7,30.06,West,273,0.0,1.0,88,0.00,,,0.00,Wunderground v.1.13,2013-07-07 06:05:00,
2013-07-07 02:15:00,74.1,70.6,30.06,West,273,0.0,1.0,89,0.00,,,0.00,Wunderground v.1.13,2013-07-07 06:15:00,
2013-07-07 02:20:00,74.1,70.6,30.06,West,273,0.0,1.0,89,0.00,,,0.00,Wunderground v.1.13,2013-07-07 06:20:00,
2013-07-07 02:25:00,74.0,70.6,30.06,West,273,0.0,1.0,89,0.00,,,0.00,Wunderground v.1.13,2013-07-07 06:25:00,
2013-07-07 02:30:00,73.9,70.1,30.06,West,273,0.0,1.0,88,0.00,,,0.00,Wunderground v.1.13,2013-07-07 06:30:00,
2013-07-07 02:35:00,73.8,70.0,30.05,West,273,0.0,1.0,88,0.00,,,0.00,Wunderground v.1.13,2013-07-07 06:35:00,
2013-07-07 02:40:00,73.7,69.9,30.06,West,273,0.0,1.0,88,0.00,,,0.00,Wunderground v.1.13,2013-07-07 06:40:00,
2013-07-07 02:45:00,73.6,69.8,30.06,West,273,0.0,1.0,88,0.00,,,0.00,Wunderground v.1.13,2013-07-07 06:45:00,
2013-07-07 02:55:00,73.7,69.6,30.06,WSW,246,1.0,1.0,87,0.00,,,0.00,Wunderground v.1.13,2013-07-07 06:55:00,
2013-07-07 03:00:00,73.7,69.6,30.06,WSW,246,0.0,1.0,87,0.00,,,0.00,Wunderground v.1.13,2013-07-07 07:00:00,
2013-07-07 03:05:00,73.9,69.4,30.06,WNW,287,1.0,8.0,86,0.00,,,0.00,Wunderground v.1.13,2013-07-07 07:05:00,
2013-07-07 03:15:00,74.2,69.4,30.06,SSW,213,2.0,2.0,85,0.00,,,0.00,Wunderground v.1.13,2013-07-07 07:15:00,
2013-07-07 03:20:00,74.2,69.4,30.06,WNW,299,1.0,1.0,85,0.00,,,0.00,Wunderground v.1.13,2013-07-07 07:20:00,
2013-07-07 03:30:00,74.3,69.5,30.06,SW,225,1.0,8.0,85,0.00,,,0.00,Wunderground v.1.13,2013-07-07 07:30:00,
2013-07-07 03:35:00,74.2,69.4,30.06,SW,225,1.0,1.0,85,0.00,,,0.00,Wunderground v.1.13,2013-07-07 07:35:00,
2013-07-07 03:40:00,74.2,69.7,30.06,SW,225,0.0,8.0,86,0.00,,,0.00,Wunderground v.1.13,2013-07-07 07:40:00,
2013-07-07 03:45:00,74.1,69.6,30.05,SW,225,0.0,8.0,86,0.00,,,0.00,Wunderground v.1.13,2013-07-07 07:45:00,
2013-07-07 03:50:00,74.1,69.6,30.06,SW,225,0.0,8.0,86,0.00,,,0.00,Wunderground v.1.13,2013-07-07 07:50:00,
2013-07-07 04:00:00,73.8,69.3,30.06,SW,221,0.0,8.0,86,0.00,,,0.00,Wunderground v.1.13,2013-07-07 08:00:00,
2013-07-07 04:05:00,73.7,69.2,30.05,SW,221,0.0,1.0,86,0.00,,,0.00,Wunderground v.1.13,2013-07-07 08:05:00,
2013-07-07 04:15:00,73.4,69.3,30.05,SW,221,0.0,1.0,87,0.00,,,0.00,Wunderground v.1.13,2013-07-07 08:15:00,
2013-07-07 04:25:00,73.1,69.0,30.05,SW,221,0.0,0.0,87,0.00,,,0.00,Wunderground v.1.13,2013-07-07 08:25:00,
2013-07-07 04:30:00,73.0,68.9,30.05,SW,221,0.0,0.0,87,0.00,,,0.00,Wunderground v.1.13,2013-07-07 08:30:00,
2013-07-07 04:35:00,72.9,68.8,30.05,SW,221,0.0,0.0,87,0.00,,,0.00,Wunderground v.1.13,2013-07-07 08:35:00,
2013-07-07 04:45:00,72.7,68.9,30.05,SW,221,0.0,0.0,88,0.00,,,0.00,Wunderground v.1.13,2013-07-07 08:45:00,
2013-07-07 04:50:00,72.6,68.8,30.05,SW,221,0.0,0.0,88,0.00,,,0.00,Wunderground v.1.13,2013-07-07 08:50:00,
2013-07-07 04:55:00,72.4,68.6,30.05,SW,221,0.0,0.0,88,0.00,,,0.00,Wunderground v.1.13,2013-07-07 08:55:00,
2013-07-07 05:00:00,72.2,68.4,30.05,SW,221,0.0,0.0,88,0.00,,,0.00,Wunderground v.1.13,2013-07-07 09:00:00,
2013-07-07 05:05:00,72.1,68.7,30.06,SW,221,0.0,0.0,89,0.00,,,0.00,Wunderground v.1.13,2013-07-07 09:05:00,
2013-07-07 05:15:00,71.9,68.5,30.06,SW,221,0.0,0.0,89,0.00,,,0.00,Wunderground v.1.13,2013-07-07 09:15:00,
2013-07-07 05:20:00,71.8,68.4,30.06,SW,221,0.0,0.0,89,0.00,,,0.00,Wunderground v.1.13,2013-07-07 09:20:00,
2013-07-07 05:25:00,71.7,68.3,30.06,SW,221,0.0,0.0,89,0.00,,,0.00,Wunderground v.1.13,2013-07-07 09:25:00,
2013-07-07 05:30:00,71.5,68.1,30.06,SW,221,0.0,0.0,89,0.00,,,0.00,Wunderground v.1.13,2013-07-07 09:30:00,
2013-07-07 05:35:00,71.4,68.3,30.07,SW,221,0.0,0.0,90,0.00,,,0.00,Wunderground v.1.13,2013-07-07 09:35:00,
2013-07-07 05:45:00,71.2,68.1,30.06,SW,221,0.0,0.0,90,0.00,,,0.00,Wunderground v.1.13,2013-07-07 09:45:00,
2013-07-07 05:50:00,70.9,68.1,30.06,SW,221,0.0,0.0,91,0.00,,,0.00,Wunderground v.1.13,2013-07-07 09:50:00,
2013-07-07 05:55:00,70.7,67.9,30.06,SW,221,0.0,0.0,91,0.00,,,0.00,Wunderground v.1.13,2013-07-07 09:55:00,
2013-07-07 06:00:00,70.6,67.8,30.06,SSW,200,0.0,0.0,91,0.00,,,0.00,Wunderground v.1.13,2013-07-07 10:00:00,
2013-07-07 06:05:00,70.6,67.8,30.06,SSW,200,0.0,1.0,91,0.00,,,0.00,Wunderground v.1.13,2013-07-07 10:05:00,
2013-07-07 06:15:00,70.6,68.2,30.06,SSW,213,0.0,1.0,92,0.00,,,0.00,Wunderground v.1.13,2013-07-07 10:15:00,
2013-07-07 06:20:00,70.6,68.2,30.06,SSW,213,0.0,1.0,92,0.00,,,0.00,Wunderground v.1.13,2013-07-07 10:20:00,
2013-07-07 06:25:00,70.6,68.2,30.06,SSW,213,0.0,1.0,92,0.00,,,0.00,Wunderground v.1.13,2013-07-07 10:25:00,
2013-07-07 06:30:00,70.6,68.2,30.06,SSW,213,0.0,1.0,92,0.00,,,0.00,Wunderground v.1.13,2013-07-07 10:30:00,
2013-07-07 06:35:00,70.6,68.2,30.06,SSW,213,0.0,1.0,92,0.00,,,0.00,Wunderground v.1.13,2013-07-07 10:35:00,
2013-07-07 06:40:00,70.7,68.3,30.06,SSW,213,0.0,1.0,92,0.00,,,0.00,Wunderground v.1.13,2013-07-07 10:40:00,
2013-07-07 06:45:00,70.7,68.3,30.06,ESE,123,0.0,1.0,92,0.00,,,0.00,Wunderground v.1.13,2013-07-07 10:45:00,
2013-07-07 06:55:00,70.8,68.4,30.06,ESE,123,0.0,1.0,92,0.00,,,0.00,Wunderground v.1.13,2013-07-07 10:55:00,
2013-07-07 07:00:00,70.8,68.4,30.06,ESE,123,0.0,1.0,92,0.00,,,0.00,Wunderground v.1.13,2013-07-07 11:00:00,
2013-07-07 07:05:00,70.8,68.4,30.06,ESE,123,0.0,1.0,92,0.00,,,0.00,Wunderground v.1.13,2013-07-07 11:05:00,
2013-07-07 07:15:00,70.9,68.5,30.06,ESE,123,0.0,1.0,92,0.00,,,0.00,Wunderground v.1.13,2013-07-07 11:15:00,
2013-07-07 07:25:00,71.0,68.6,30.06,ESE,123,0.0,1.0,92,0.00,,,0.00,Wunderground v.1.13,2013-07-07 11:25:00,
2013-07-07 07:30:00,71.1,68.7,30.05,NNE,30,0.0,1.0,92,0.00,,,0.00,Wunderground v.1.13,2013-07-07 11:30:00,
2013-07-07 07:40:00,71.4,69.0,30.06,NNE,30,0.0,1.0,92,0.00,,,0.00,Wunderground v.1.13,2013-07-07 11:40:00,
2013-07-07 07:45:00,71.5,69.1,30.06,NNE,30,0.0,1.0,92,0.00,,,0.00,Wunderground v.1.13,2013-07-07 11:45:00,
2013-07-07 07:50:00,71.6,69.2,30.06,NNE,30,0.0,1.0,92,0.00,,,0.00,Wunderground v.1.13,2013-07-07 11:50:00,
2013-07-07 07:55:00,71.8,69.3,30.06,West,281,0.0,1.0,92,0.00,,,0.00,Wunderground v.1.13,2013-07-07 11:55:00,
2013-07-07 08:05:00,72.1,69.6,30.06,NNE,17,0.0,1.0,92,0.00,,,0.00,Wunderground v.1.13,2013-07-07 12:05:00,
2013-07-07 08:15:00,72.4,69.6,30.05,NNE,17,0.0,1.0,91,0.00,,,0.00,Wunderground v.1.13,2013-07-07 12:15:00,
2013-07-07 08:20:00,72.6,69.5,30.06,NNE,19,0.0,1.0,90,0.00,,,0.00,Wunderground v.1.13,2013-07-07 12:20:00,
2013-07-07 08:25:00,73.0,69.2,30.06,NNW,342,0.0,1.0,88,0.00,,,0.00,Wunderground v.1.13,2013-07-07 12:25:00,
2013-07-07 08:30:00,73.4,69.3,30.06,WNW,287,1.0,3.0,87,0.00,,,0.00,Wunderground v.1.13,2013-07-07 12:30:00,
2013-07-07 08:40:00,74.0,69.5,30.06,West,264,2.0,2.0,86,0.00,,,0.00,Wunderground v.1.13,2013-07-07 12:40:00,
2013-07-07 08:45:00,74.3,69.5,30.07,SSE,165,1.0,1.0,85,0.00,,,0.00,Wunderground v.1.13,2013-07-07 12:45:00,
2013-07-07 08:50:00,74.6,69.4,30.07,SSW,213,2.0,4.0,84,0.00,,,0.00,Wunderground v.1.13,2013-07-07 12:50:00,
2013-07-07 08:55:00,74.9,69.7,30.07,West,265,2.0,2.0,84,0.00,,,0.00,Wunderground v.1.13,2013-07-07 12:55:00,
2013-07-07 09:00:00,75.4,69.9,30.07,SSE,150,2.0,2.0,83,0.00,,,0.00,Wunderground v.1.13,2013-07-07 13:00:00,
2013-07-07 09:05:00,75.7,70.2,30.07,SSE,152,2.0,2.0,83,0.00,,,0.00,Wunderground v.1.13,2013-07-07 13:05:00,
2013-07-07 09:15:00,76.0,70.1,30.07,South,182,2.0,7.0,82,0.00,,,0.00,Wunderground v.1.13,2013-07-07 13:15:00,
2013-07-07 09:20:00,76.1,69.5,30.06,WSW,249,2.0,7.0,80,0.00,,,0.00,Wunderground v.1.13,2013-07-07 13:20:00,
2013-07-07 09:25:00,76.1,69.8,30.06,WSW,252,3.0,3.0,81,0.00,,,0.00,Wunderground v.1.13,2013-07-07 13:25:00,
2013-07-07 09:30:00,76.6,70.7,30.06,West,259,2.0,2.0,82,0.00,,,0.00,Wunderground v.1.13,2013-07-07 13:30:00,
2013-07-07 09:35:00,76.9,70.6,30.06,WSW,244,1.0,7.0,81,0.00,,,0.00,Wunderground v.1.13,2013-07-07 13:35:00,
2013-07-07 09:45:00,76.2,69.9,30.07,WNW,290,2.0,2.0,81,0.00,,,0.00,Wunderground v.1.13,2013-07-07 13:45:00,
2013-07-07 09:50:00,76.5,69.9,30.07,WSW,250,1.0,7.0,80,0.00,,,0.00,Wunderground v.1.13,2013-07-07 13:50:00,
2013-07-07 09:55:00,76.9,69.9,30.06,SSW,202,2.0,7.0,79,0.00,,,0.00,Wunderground v.1.13,2013-07-07 13:55:00,
2013-07-07 10:05:00,77.0,69.2,30.06,WNW,298,2.0,7.0,77,0.00,,,0.00,Wunderground v.1.13,2013-07-07 14:05:00,
2013-07-07 10:15:00,77.4,70.0,30.06,SE,125,2.0,7.0,78,0.00,,,0.00,Wunderground v.1.13,2013-07-07 14:15:00,
2013-07-07 10:25:00,77.5,69.3,30.06,WSW,246,2.0,2.0,76,0.00,,,0.00,Wunderground v.1.13,2013-07-07 14:25:00,
2013-07-07 10:30:00,77.5,70.1,30.05,SSW,212,1.0,1.0,78,0.00,,,0.00,Wunderground v.1.13,2013-07-07 14:30:00,
2013-07-07 10:35:00,77.4,69.2,30.05,WSW,237,2.0,2.0,76,0.00,,,0.00,Wunderground v.1.13,2013-07-07 14:35:00,
2013-07-07 10:40:00,77.4,70.0,30.05,West,275,2.0,9.0,78,0.00,,,0.00,Wunderground v.1.13,2013-07-07 14:40:00,
2013-07-07 10:45:00,77.3,69.9,30.05,South,191,2.0,2.0,78,0.00,,,0.00,Wunderground v.1.13,2013-07-07 14:45:00,
2013-07-07 10:50:00,77.1,69.7,30.05,SSW,212,2.0,2.0,78,0.00,,,0.00,Wunderground v.1.13,2013-07-07 14:50:00,
2013-07-07 11:00:00,77.1,69.3,30.05,WNW,284,1.0,7.0,77,0.00,,,0.00,Wunderground v.1.13,2013-07-07 15:00:00,
2013-07-07 11:05:00,77.2,69.8,30.05,West,265,2.0,2.0,78,0.00,,,0.00,Wunderground v.1.13,2013-07-07 15:05:00,
2013-07-07 11:15:00,77.3,69.9,30.05,WNW,292,2.0,2.0,78,0.00,,,0.00,Wunderground v.1.13,2013-07-07 15:15:00,
2013-07-07 11:20:00,77.5,69.3,30.05,WSW,244,2.0,2.0,76,0.00,,,0.00,Wunderground v.1.13,2013-07-07 15:20:00,
2013-07-07 11:25:00,77.5,68.9,30.05,WSW,248,2.0,4.0,75,0.00,,,0.00,Wunderground v.1.13,2013-07-07 15:25:00,
2013-07-07 11:35:00,78.0,69.4,30.05,SSE,168,2.0,2.0,75,0.00,,,0.00,Wunderground v.1.13,2013-07-07 15:35:00,
2013-07-07 11:40:00,77.7,69.5,30.06,South,175,2.0,2.0,76,0.00,,,0.00,Wunderground v.1.13,2013-07-07 15:40:00,
2013-07-07 11:45:00,77.6,69.8,30.06,WSW,254,1.0,4.0,77,0.00,,,0.00,Wunderground v.1.13,2013-07-07 15:45:00,
2013-07-07 11:50:00,77.4,69.2,30.06,SW,221,1.0,6.0,76,0.00,,,0.00,Wunderground v.1.13,2013-07-07 15:50:00,
2013-07-07 11:55:00,77.2,70.2,30.06,West,260,1.0,4.0,79,0.00,,,0.00,Wunderground v.1.13,2013-07-07 15:55:00,
2013-07-07 12:05:00,77.1,70.5,30.06,South,184,1.0,3.0,80,0.00,,,0.00,Wunderground v.1.13,2013-07-07 16:05:00,
2013-07-07 12:15:00,76.2,71.0,30.06,WSW,258,1.0,3.0,84,0.00,,,0.00,Wunderground v.1.13,2013-07-07 16:15:00,
2013-07-07 12:20:00,75.8,71.0,30.06,WSW,258,1.0,1.0,85,0.00,,,0.00,Wunderground v.1.13,2013-07-07 16:20:00,
2013-07-07 12:25:00,75.8,71.3,30.06,WSW,258,0.0,3.0,86,0.00,,,0.00,Wunderground v.1.13,2013-07-07 16:25:00,
2013-07-07 12:30:00,75.7,71.2,30.06,WSW,258,0.0,3.0,86,0.00,,,0.00,Wunderground v.1.13,2013-07-07 16:30:00,
2013-07-07 12:40:00,75.6,71.1,30.06,WSW,256,0.0,3.0,86,0.00,,,0.00,Wunderground v.1.13,2013-07-07 16:40:00,
2013-07-07 12:45:00,75.3,71.2,30.06,WSW,256,0.0,3.0,87,0.00,,,0.00,Wunderground v.1.13,2013-07-07 16:45:00,
2013-07-07 12:50:00,75.2,71.4,30.06,SW,232,0.0,3.0,88,0.00,,,0.00,Wunderground v.1.13,2013-07-07 16:50:00,
2013-07-07 12:55:00,75.1,71.6,30.06,SW,227,0.0,4.0,89,0.00,,,0.00,Wunderground v.1.13,2013-07-07 16:55:00,
2013-07-07 13:00:00,74.8,71.0,30.06,WSW,238,1.0,3.0,88,0.00,,,0.00,Wunderground v.1.13,2013-07-07 17:00:00,
2013-07-07 13:05:00,74.3,70.2,30.06,West,272,2.0,7.0,87,0.00,,,0.00,Wunderground v.1.13,2013-07-07 17:05:00,
2013-07-07 13:15:00,73.8,70.0,30.06,NW,321,1.0,7.0,88,0.00,,,0.00,Wunderground v.1.13,2013-07-07 17:15:00,
2013-07-07 13:20:00,73.7,70.3,30.05,NW,321,1.0,7.0,89,0.00,,,0.00,Wunderground v.1.13,2013-07-07 17:20:00,
2013-07-07 13:30:00,73.2,69.4,30.04,NW,321,0.0,7.0,88,0.00,,,0.00,Wunderground v.1.13,2013-07-07 17:30:00,
2013-07-07 13:35:00,73.0,69.6,30.03,NW,321,0.0,7.0,89,0.00,,,0.00,Wunderground v.1.13,2013-07-07 17:35:00,
2013-07-07 13:40:00,72.9,69.5,30.02,NW,321,0.0,7.0,89,0.00,,,0.00,Wunderground v.1.13,2013-07-07 17:40:00,
2013-07-07 13:50:00,72.8,70.0,30.03,NW,321,0.0,7.0,91,0.00,,,0.00,Wunderground v.1.13,2013-07-07 17:50:00,
2013-07-07 13:55:00,72.7,69.9,30.03,NW,321,0.0,7.0,91,0.00,,,0.00,Wunderground v.1.13,2013-07-07 17:55:00,
2013-07-07 14:00:00,72.6,69.8,30.03,NW,321,0.0,7.0,91,0.00,,,0.00,Wunderground v.1.13,2013-07-07 18:00:00,
2013-07-07 14:05:00,72.4,69.6,30.03,NW,321,1.0,3.0,91,0.00,,,0.00,Wunderground v.1.13,2013-07-07 18:05:00,
2013-07-07 14:15:00,72.0,69.2,30.01,NW,321,1.0,1.0,91,0.00,,,0.00,Wunderground v.1.13,2013-07-07 18:15:00,
2013-07-07 14:25:00,72.1,69.3,30.02,NW,321,0.0,3.0,91,0.00,,,0.00,Wunderground v.1.13,2013-07-07 18:25:00,
2013-07-07 14:30:00,72.1,69.3,30.03,NW,319,0.0,3.0,91,0.00,,,0.00,Wunderground v.1.13,2013-07-07 18:30:00,
2013-07-07 14:35:00,72.2,69.7,30.03,NW,320,0.0,3.0,92,0.00,,,0.00,Wunderground v.1.13,2013-07-07 18:35:00,
2013-07-07 14:40:00,72.4,69.9,30.02,NW,320,0.0,3.0,92,0.00,,,0.00,Wunderground v.1.13,2013-07-07 18:40:00,
2013-07-07 14:45:00,72.7,70.2,30.01,NW,319,0.0,3.0,92,0.00,,,0.00,Wunderground v.1.13,2013-07-07 18:45:00,
2013-07-07 14:50:00,73.1,71.0,30.02,NW,320,0.0,3.0,93,0.00,,,0.00,Wunderground v.1.13,2013-07-07 18:50:00,
2013-07-07 15:00:00,73.4,70.9,30.01,NW,320,0.0,3.0,92,0.00,,,0.00,Wunderground v.1.13,2013-07-07 19:00:00,
2013-07-07 15:05:00,73.7,71.2,30.01,NW,320,0.0,1.0,92,0.00,,,0.00,Wunderground v.1.13,2013-07-07 19:05:00,
2013-07-07 15:15:00,73.7,70.6,30.02,South,178,1.0,1.0,90,0.00,,,0.00,Wunderground v.1.13,2013-07-07 19:15:00,
2013-07-07 15:20:00,73.5,70.4,30.02,WSW,253,2.0,2.0,90,0.00,,,0.00,Wunderground v.1.13,2013-07-07 19:20:00,
2013-07-07 15:25:00,73.5,70.4,30.02,WSW,253,2.0,2.0,90,0.00,,,0.00,Wunderground v.1.13,2013-07-07 19:25:00,
2013-07-07 15:35:00,73.6,70.5,30.01,WSW,253,0.0,1.0,90,0.00,,,0.00,Wunderground v.1.13,2013-07-07 19:35:00,
2013-07-07 15:40:00,73.7,70.6,30.01,SSW,192,1.0,2.0,90,0.00,,,0.00,Wunderground v.1.13,2013-07-07 19:40:00,
2013-07-07 15:45:00,73.8,70.4,30.02,SW,222,1.0,5.0,89,0.00,,,0.00,Wunderground v.1.13,2013-07-07 19:45:00,
2013-07-07 15:50:00,73.8,70.4,30.01,WNW,302,2.0,3.0,89,0.00,,,0.00,Wunderground v.1.13,2013-07-07 19:50:00,
2013-07-07 15:55:00,74.1,70.6,30.01,SW,218,2.0,6.0,89,0.00,,,0.00,Wunderground v.1.13,2013-07-07 19:55:00,
2013-07-07 16:05:00,75.1,71.3,30.00,SSE,155,2.0,2.0,88,0.00,,,0.00,Wunderground v.1.13,2013-07-07 20:05:00,
2013-07-07 16:15:00,75.3,70.5,30.00,West,270,1.0,4.0,85,0.00,,,0.00,Wunderground v.1.13,2013-07-07 20:15:00,
2013-07-07 16:20:00,75.4,70.9,30.00,SW,221,1.0,4.0,86,0.00,,,0.00,Wunderground v.1.13,2013-07-07 20:20:00,
2013-07-07 16:25:00,75.6,71.5,30.00,SSW,209,1.0,4.0,87,0.00,,,0.00,Wunderground v.1.13,2013-07-07 20:25:00,
2013-07-07 16:35:00,75.8,71.3,29.99,South,174,1.0,4.0,86,0.00,,,0.00,Wunderground v.1.13,2013-07-07 20:35:00,
2013-07-07 16:40:00,75.8,71.0,30.00,South,174,1.0,1.0,85,0.00,,,0.00,Wunderground v.1.13,2013-07-07 20:40:00,
2013-07-07 16:50:00,76.0,71.5,29.99,South,173,0.0,4.0,86,0.00,,,0.00,Wunderground v.1.13,2013-07-07 20:50:00,
2013-07-07 16:55:00,76.1,71.6,29.99,South,174,0.0,4.0,86,0.00,,,0.00,Wunderground v.1.13,2013-07-07 20:55:00,
2013-07-07 17:00:00,76.0,71.2,29.99,South,173,0.0,4.0,85,0.00,,,0.00,Wunderground v.1.13,2013-07-07 21:00:00,
2013-07-07 17:05:00,75.6,70.8,29.99,South,174,1.0,2.0,85,0.00,,,0.00,Wunderground v.1.13,2013-07-07 21:05:00,
2013-07-07 17:15:00,74.8,70.7,29.98,South,174,1.0,2.0,87,0.00,,,0.00,Wunderground v.1.13,2013-07-07 21:15:00,
2013-07-07 17:20:00,74.5,71.0,29.99,South,173,1.0,2.0,89,0.00,,,0.00,Wunderground v.1.13,2013-07-07 21:20:00,
2013-07-07 17:25:00,74.4,70.9,29.98,South,174,1.0,1.0,89,0.00,,,0.00,Wunderground v.1.13,2013-07-07 21:25:00,
2013-07-07 17:30:00,74.4,70.9,29.98,South,173,0.0,2.0,89,0.00,,,0.00,Wunderground v.1.13,2013-07-07 21:30:00,
2013-07-07 17:35:00,74.8,71.7,29.98,South,174,0.0,2.0,90,0.00,,,0.00,Wunderground v.1.13,2013-07-07 21:35:00,
2013-07-07 17:40:00,75.1,72.3,29.98,South,173,0.0,2.0,91,0.00,,,0.00,Wunderground v.1.13,2013-07-07 21:40:00,
2013-07-07 17:50:00,75.4,71.6,29.98,South,174,0.0,2.0,88,0.00,,,0.00,Wunderground v.1.13,2013-07-07 21:50:00,
2013-07-07 17:55:00,75.5,72.0,29.98,South,174,0.0,2.0,89,0.00,,,0.00,Wunderground v.1.13,2013-07-07 21:55:00,
2013-07-07 18:00:00,75.6,72.1,29.98,South,173,0.0,2.0,89,0.00,,,0.00,Wunderground v.1.13,2013-07-07 22:00:00,
2013-07-07 18:05:00,75.8,72.3,29.98,South,173,0.0,1.0,89,0.00,,,0.00,Wunderground v.1.13,2013-07-07 22:05:00,
2013-07-07 18:15:00,75.4,71.6,29.98,South,178,1.0,1.0,88,0.00,,,0.00,Wunderground v.1.13,2013-07-07 22:15:00,
2013-07-07 18:25:00,75.4,71.3,29.98,South,184,1.0,1.0,87,0.00,,,0.00,Wunderground v.1.13,2013-07-07 22:25:00,
2013-07-07 18:30:00,75.8,71.7,29.98,South,184,1.0,1.0,87,0.00,,,0.00,Wunderground v.1.13,2013-07-07 22:30:00,
2013-07-07 18:35:00,76.0,71.2,29.98,SSE,161,2.0,2.0,85,0.00,,,0.00,Wunderground v.1.13,2013-07-07 22:35:00,
2013-07-07 18:45:00,75.7,70.5,29.98,ESE,114,2.0,2.0,84,0.00,,,0.00,Wunderground v.1.13,2013-07-07 22:45:00,
2013-07-07 18:50:00,75.6,70.8,29.98,South,174,1.0,1.0,85,0.00,,,0.00,Wunderground v.1.13,2013-07-07 22:50:00,
2013-07-07 18:55:00,75.4,70.6,29.98,SE,146,1.0,1.0,85,0.00,,,0.00,Wunderground v.1.13,2013-07-07 22:55:00,
2013-07-07 19:05:00,75.4,70.9,29.98,SE,144,1.0,1.0,86,0.00,,,0.00,Wunderground v.1.13,2013-07-07 23:05:00,
2013-07-07 19:15:00,75.4,71.3,29.99,WSW,254,1.0,4.0,87,0.00,,,0.00,Wunderground v.1.13,2013-07-07 23:15:00,
2013-07-07 19:20:00,75.3,70.8,29.98,West,259,1.0,1.0,86,0.00,,,0.00,Wunderground v.1.13,2013-07-07 23:20:00,
2013-07-07 19:25:00,75.3,70.8,29.98,South,186,0.0,4.0,86,0.00,,,0.00,Wunderground v.1.13,2013-07-07 23:25:00,
2013-07-07 19:30:00,75.3,70.5,29.98,SW,236,1.0,4.0,85,0.00,,,0.00,Wunderground v.1.13,2013-07-07 23:30:00,
2013-07-07 19:35:00,75.3,70.5,29.98,SSE,161,1.0,1.0,85,0.00,,,0.00,Wunderground v.1.13,2013-07-07 23:35:00,
2013-07-07 19:40:00,75.3,70.5,29.98,SE,143,1.0,4.0,85,0.00,,,0.00,Wunderground v.1.13,2013-07-07 23:40:00,
2013-07-07 19:45:00,75.2,70.4,29.98,WNW,303,1.0,4.0,85,0.00,,,0.00,Wunderground v.1.13,2013-07-07 23:45:00,
2013-07-07 19:50:00,75.1,70.3,29.98,WNW,301,1.0,4.0,85,0.00,,,0.00,Wunderground v.1.13,2013-07-07 23:50:00,
2013-07-07 19:55:00,74.9,70.1,29.98,WNW,290,1.0,1.0,85,0.00,,,0.00,Wunderground v.1.13,2013-07-07 23:55:00,
2013-07-07 20:00:00,74.8,70.3,29.99,WNW,290,1.0,4.0,86,0.00,,,0.00,Wunderground v.1.13,2013-07-08 00:00:00,
2013-07-07 20:05:00,74.7,70.2,29.99,WNW,290,0.0,2.0,86,0.00,,,0.00,Wunderground v.1.13,2013-07-08 00:05:00,
2013-07-07 20:15:00,74.5,70.0,29.99,WNW,294,1.0,1.0,86,0.00,,,0.00,Wunderground v.1.13,2013-07-08 00:15:00,
2013-07-07 20:20:00,74.5,70.4,29.99,WNW,294,0.0,2.0,87,0.00,,,0.00,Wunderground v.1.13,2013-07-08 00:20:00,
2013-07-07 20:25:00,74.4,70.3,30.00,WNW,294,0.0,2.0,87,0.00,,,0.00,Wunderground v.1.13,2013-07-08 00:25:00,
2013-07-07 20:30:00,74.4,70.3,30.00,WNW,294,0.0,2.0,87,0.00,,,0.00,Wunderground v.1.13,2013-07-08 00:30:00,
2013-07-07 20:35:00,74.4,70.3,30.00,WNW,294,0.0,2.0,87,0.00,,,0.00,Wunderground v.1.13,2013-07-08 00:35:00,
2013-07-07 20:45:00,74.3,70.5,30.00,WNW,294,0.0,2.0,88,0.00,,,0.00,Wunderground v.1.13,2013-07-08 00:45:00,
2013-07-07 20:50:00,74.2,70.4,30.00,WNW,294,0.0,2.0,88,0.00,,,0.00,Wunderground v.1.13,2013-07-08 00:50:00,
2013-07-07 20:55:00,74.0,70.2,30.01,WNW,294,0.0,2.0,88,0.00,,,0.00,Wunderground v.1.13,2013-07-08 00:55:00,
2013-07-07 21:00:00,73.9,70.1,30.01,WNW,294,0.0,2.0,88,0.00,,,0.00,Wunderground v.1.13,2013-07-08 01:00:00,
2013-07-07 21:10:00,73.9,70.1,30.01,WNW,294,0.0,0.0,88,0.00,,,0.00,Wunderground v.1.13,2013-07-08 01:10:00,
2013-07-07 21:20:00,73.7,69.9,30.01,WNW,294,0.0,0.0,88,0.00,,,0.00,Wunderground v.1.13,2013-07-08 01:20:00,
2013-07-07 21:25:00,73.5,69.7,30.02,ESE,119,0.0,4.0,88,0.00,,,0.00,Wunderground v.1.13,2013-07-08 01:25:00,
2013-07-07 21:30:00,73.3,69.5,30.02,ESE,120,1.0,1.0,88,0.00,,,0.00,Wunderground v.1.13,2013-07-08 01:30:00,
2013-07-07 21:40:00,73.1,69.3,30.02,WNW,288,1.0,1.0,88,0.00,,,0.00,Wunderground v.1.13,2013-07-08 01:40:00,
2013-07-07 21:45:00,73.0,69.2,30.02,WNW,288,1.0,1.0,88,0.00,,,0.00,Wunderground v.1.13,2013-07-08 01:45:00,
2013-07-07 21:55:00,73.0,69.2,30.03,WNW,289,0.0,0.0,88,0.00,,,0.00,Wunderground v.1.13,2013-07-08 01:55:00,
2013-07-07 22:00:00,73.0,69.2,30.03,WNW,289,0.0,0.0,88,0.00,,,0.00,Wunderground v.1.13,2013-07-08 02:00:00,
2013-07-07 22:05:00,72.9,69.1,30.03,WNW,289,0.0,1.0,88,0.00,,,0.00,Wunderground v.1.13,2013-07-08 02:05:00,
2013-07-07 22:15:00,72.9,69.1,30.04,WNW,288,0.0,1.0,88,0.00,,,0.00,Wunderground v.1.13,2013-07-08 02:15:00,
2013-07-07 22:20:00,72.8,69.0,30.04,WNW,289,0.0,1.0,88,0.00,,,0.00,Wunderground v.1.13,2013-07-08 02:20:00,
2013-07-07 22:30:00,72.6,69.2,30.04,WNW,289,0.0,1.0,89,0.00,,,0.00,Wunderground v.1.13,2013-07-08 02:30:00,
2013-07-07 22:35:00,72.5,69.1,30.04,WNW,288,0.0,1.0,89,0.00,,,0.00,Wunderground v.1.13,2013-07-08 02:35:00,
2013-07-07 22:40:00,72.4,69.0,30.04,WNW,289,0.0,1.0,89,0.00,,,0.00,Wunderground v.1.13,2013-07-08 02:40:00,
2013-07-07 22:45:00,72.4,69.0,30.04,WNW,288,0.0,1.0,89,0.00,,,0.00,Wunderground v.1.13,2013-07-08 02:45:00,
2013-07-07 22:50:00,72.3,68.9,30.04,WNW,289,0.0,1.0,89,0.00,,,0.00,Wunderground v.1.13,2013-07-08 02:50:00,
2013-07-07 23:00:00,71.9,68.5,30.04,WNW,289,0.0,1.0,89,0.00,,,0.00,Wunderground v.1.13,2013-07-08 03:00:00,
2013-07-07 23:05:00,71.8,68.4,30.04,WNW,289,0.0,1.0,89,0.00,,,0.00,Wunderground v.1.13,2013-07-08 03:05:00,
2013-07-07 23:15:00,71.6,68.5,30.04,WNW,289,0.0,1.0,90,0.00,,,0.00,Wunderground v.1.13,2013-07-08 03:15:00,
2013-07-07 23:20:00,71.5,68.4,30.04,WNW,288,0.0,1.0,90,0.00,,,0.00,Wunderground v.1.13,2013-07-08 03:20:00,
2013-07-07 23:25:00,71.3,68.2,30.04,WNW,289,1.0,1.0,90,0.00,,,0.00,Wunderground v.1.13,2013-07-08 03:25:00,
2013-07-07 23:35:00,71.2,68.1,30.05,WNW,289,1.0,1.0,90,0.00,,,0.00,Wunderground v.1.13,2013-07-08 03:35:00,
2013-07-07 23:40:00,71.1,68.0,30.05,WNW,289,1.0,1.0,90,0.00,,,0.00,Wunderground v.1.13,2013-07-08 03:40:00,
2013-07-07 23:45:00,71.0,67.9,30.05,WNW,289,0.0,1.0,90,0.00,,,0.00,Wunderground v.1.13,2013-07-08 03:45:00,
2013-07-07 23:50:00,70.9,67.8,30.05,WNW,288,0.0,1.0,90,0.00,,,0.00,Wunderground v.1.13,2013-07-08 03:50:00,
2013-07-07 23:55:00,70.8,67.7,30.05,WNW,289,0.0,1.0,90,0.00,,,0.00,Wunderground v.1.13,2013-07-08 03:55:00,